Regional Weather Roundup
Issued by NWS Midland/Odessa, TX

Skip options and go directly to product.
Home | Oldest Version | Previous Version | Current Version | All | Graphics & Text | Save Text | Print | Product List | Glossary On

Skip product version selection by date and time.   
843
ASUS44 KMAF 300910
RWRMAF
MIDLAND AREA WEATHER ROUNDUP
NATIONAL WEATHER SERVICE MIDLAND TX
400 AM CDT SAT JUL 30 2016

...IN SOUTHWEST TEXAS AND SOUTHEAST NEW MEXICO...

CITY           SKY/WX    TMP DP  RH WIND       PRES   REMARKS
ALPINE         CLEAR     66  60  80 SW7       30.20S
ANDREWS        FAIR      75  64  67 S9        30.08S
ARTESIA        CLEAR     77  59  53 SE13      30.07R
BIG SPRING     CLEAR     75  64  67 SE8       30.07S
CARLSBAD       CLEAR     75  58  55 S8        30.05S
DRYDEN           N/A     76  66  71 E9        30.01S
FORT STOCKTON  CLEAR     73  62  68 S8        30.06S
GUAD PASS      CLEAR     69  57  65 E7        30.21S
HOBBS          CLOUDY    73  63  68 S6        30.13R
MARFA          CLEAR     60  58  92 NE3       30.18F
MIDLAND AIRPK  CLEAR     78  64  61 S8        30.07S
MIDLAND INTL   CLEAR     77  65  66 S7        30.06S
ODESSA         CLEAR     78  65  63 S9        30.08R
PECOS          CLEAR     74  61  64 E7        30.03S
PRESIDIO       FAIR      75  61  62 N5        30.03F
SEMINOLE       PTCLDY    74  62  66 S5        30.11R
SNYDER           N/A     75  62  63 S7        30.05S
WINK           CLEAR     76  63  64 SE8       30.04S
$$
...OTHER STATIONS IN TEXAS...

CITY           SKY/WX    TMP DP  RH WIND       PRES   REMARKS
ABILENE        CLEAR     79  62  56 S15       30.01F
AMARILLO       MOCLDY    69  57  65 S23       30.06F
AUSTIN         PTCLDY    75  74  96 CALM      30.00F
BROWNSVILLE    CLEAR     79  76  90 CALM      29.97S
CORPUS CHRISTI PTCLDY    79  76  90 CALM      29.98S
DALLAS FTW     CLEAR     82  72  71 S12       29.96S
DEL RIO        CLEAR     76  68  76 E7        29.98S
EL PASO        CLOUDY    79  61  53 SE14      30.05S
HOUSTON INT    PTCLDY    80  76  87 CALM      30.01S
LUBBOCK        CLOUDY    70  59  68 N13       30.10F
SAN ANGELO     CLEAR     77  66  68 S9        30.02S
SAN ANTONIO    MOCLDY    78  74  87 SE9       30.02F
WACO           CLOUDY    81  72  74 S13       29.99S
WICHITA FALLS  NOT AVBL
$$
...OTHER LOCATIONS IN NEW MEXICO...

CITY           SKY/WX    TMP DP  RH WIND       PRES   REMARKS
ALAMAGORDO     PTCLDY    75  57  53 S10       30.08S
ALBUQUERQUE    CLOUDY    70  55  59 E6        30.18R
CANNON AFB     CLOUDY    66  60  80 SE5       30.11F
CLOVIS         CLOUDY    68  55  64 SE5       30.09F
HOLLOMAN AFB   MOCLDY    79  58  48 S14       30.06R
ROSWELL        PTCLDY    77  56  48 SE3       30.08R
RUIDOSO          N/A     63  50  63 SW3       30.31R
SANTA FE       CLOUDY    64  46  52 SE7       30.25R
TRUTH OR CONSE CLOUDY    72  50  45 NW8       30.10S
TUCUMCARI      CLEAR     64  60  87 NW6       30.11S
$$

USA.gov is the U.S. government's official web portal to all federal, state and local government web resources and services.